Location: São Paulo
(23.5507°S, 46.6334°W)
Time: 14:00:21
(UTC-03:00)

Tiros 1 - Pass Details

Date: 12 February 2026
Orbit: 618 x 649 km, 48.4° (Epoch: 11 March)

Event Time Altitude Azimuth Distance (km) Brightness Sun altitude
Rises 20:14:04 0° 337° (NNW) 2,904 10.5 -19.3°
Reaches altitude 10° 20:16:32 10° 346° (NNW) 2,009 9.6 -19.8°
Enters shadow 20:18:11 20° 360° (N) 1,479 8.7 -20.1°
Maximum altitude 20:20:42 34° 51° (NE) 1,063 - -20.7°
Drops below altitude 10° 20:24:57 10° 115° (ESE) 2,045 - -21.5°
Sets 20:27:28 0° 124° (SE) 2,965 - -22.1°
